Weather History for Erwin, NC

Change the Weather History Date:

Wednesday, April 9, 2014

  Actual Average Record
Temperature  
Mean Temperature 59 °F -  
Max Temperature 69 °F 71 °F 91 °F (2001)
Min Temperature 47 °F 46 °F 31 °F (1990)
Degree Days  
Heating Degree Days 6    
Growing Degree Days 9 (Base 50)    
Moisture  
Dew Point 40 °F    
Average Humidity 54    
Maximum Humidity 84    
Minimum Humidity 25    
Precipitation  
Precipitation 0.03 in - - ()
Sea Level Pressure  
Sea Level Pressure 29.87 in    
Wind  
Wind Speed 4 mph (NW)    
Max Wind Speed 12 mph    
Max Gust Speed 18 mph    
Visibility 10 miles    
Events Rain    
Averages and records for this station are not official NWS values.
T = Trace of Precipitation, MM = Missing Value Source: NWS Daily Summary

Daily Weather History Graph

Daily Weather History Graph

Search for Another Location

Airport:

Trip Planner

Search our weather history database for the weather conditions in past years. The results will help you decide how hot, cold, wet, or windy it might be!

Date:

Astronomy

Apr. 09, 2014 Rise Set
Actual Time 6:50 AM EDT 7:42 PM EDT
Civil Twilight 6:24 AM EDT 8:08 PM EDT
Nautical Twilight 5:54 AM EDT 8:39 PM EDT
Astronomical Twilight 5:22 AM EDT 9:11 PM EDT
Moon 2:40 PM EDT (4/9) 3:27 AM EDT (4/9)
Length of Visible Light 13h 44m
Length of Day
12h 52m
Waxing Gibbous, 71% of the Moon is Illuminated
Apr 9
Waxing Gibbous
Apr 15
Full
Apr 22
Last Quarter
Apr 29
New
May 6
First Quarter

Hourly Weather History & Observations

Time (EDT) Temp. Dew Point Humidity Pressure Visibility Wind Dir Wind Speed Gust Speed Precip Events Conditions
12:15 AM 57.6 °F 42.3 °F 57% 29.68 in 10.0 mi NNW 4.6 mph - N/A   Mostly Cloudy
12:35 AM 55.9 °F 42.6 °F 61% 29.69 in 10.0 mi Calm Calm - N/A   Scattered Clouds
12:55 AM 55.4 °F 41.5 °F 60% 29.69 in 10.0 mi North 3.5 mph - N/A   Scattered Clouds
1:35 AM 53.6 °F 41.0 °F 62% 29.70 in 10.0 mi Calm Calm - N/A   Scattered Clouds
1:55 AM 53.1 °F 41.4 °F 64% 29.70 in 10.0 mi NW 3.5 mph - N/A   Scattered Clouds
2:15 AM 51.8 °F 43.3 °F 73% 29.69 in 10.0 mi NW 3.5 mph - N/A   Overcast
2:35 AM 50.9 °F 43.5 °F 76% 29.68 in 10.0 mi NW 3.5 mph - N/A   Overcast
2:55 AM 51.6 °F 42.1 °F 70% 29.68 in 10.0 mi Calm Calm - N/A   Overcast
3:15 AM 51.8 °F 41.4 °F 68% 29.67 in 10.0 mi NNW 3.5 mph - N/A   Overcast
3:35 AM 51.3 °F 42.6 °F 72% 29.67 in 10.0 mi Calm Calm - N/A   Overcast
3:55 AM 52.5 °F 40.8 °F 64% 29.69 in 10.0 mi WNW 8.1 mph - N/A   Overcast
4:15 AM 52.0 °F 42.4 °F 70% 29.70 in 7.0 mi NW 9.2 mph - N/A Rain Light Rain
4:35 AM 50.0 °F 44.6 °F 82% 29.71 in 10.0 mi NNW 4.6 mph - 0.02 in Rain Light Rain
4:55 AM 50.9 °F 43.7 °F 76% 29.71 in 10.0 mi NNW 4.6 mph - 0.02 in   Overcast
5:15 AM 51.8 °F 42.6 °F 71% 29.72 in 10.0 mi NNW 11.5 mph 17.3 mph N/A   Overcast
5:35 AM 52.0 °F 42.1 °F 69% 29.73 in 10.0 mi NNW 10.4 mph 18.4 mph N/A   Overcast
5:55 AM 52.3 °F 41.9 °F 68% 29.74 in 10.0 mi North 9.2 mph - N/A   Overcast
6:15 AM 52.3 °F 42.8 °F 70% 29.76 in 10.0 mi NNW 9.2 mph - N/A Rain Light Rain
6:35 AM 51.1 °F 43.9 °F 76% 29.77 in 10.0 mi North 4.6 mph - 0.01 in   Overcast
6:55 AM 51.6 °F 43.0 °F 72% 29.78 in 10.0 mi North 4.6 mph - 0.01 in   Overcast
7:15 AM 51.8 °F 43.2 °F 72% 29.79 in 10.0 mi NNE 3.5 mph - N/A   Overcast
7:35 AM 51.6 °F 44.2 °F 76% 29.81 in 10.0 mi Calm Calm - N/A   Overcast
8:15 AM 51.6 °F 44.1 °F 75% 29.83 in 10.0 mi Calm Calm - N/A   Scattered Clouds
8:35 AM 52.7 °F 43.9 °F 72% 29.83 in 10.0 mi Calm Calm - N/A   Clear
8:55 AM 54.3 °F 43.9 °F 68% 29.84 in 10.0 mi NNW 3.5 mph - N/A   Mostly Cloudy
9:15 AM 55.8 °F 43.3 °F 63% 29.84 in 10.0 mi Calm Calm - N/A   Overcast
9:35 AM 57.6 °F 42.8 °F 58% 29.85 in 10.0 mi Calm Calm - N/A   Mostly Cloudy
9:55 AM 58.5 °F 41.2 °F 53% 29.86 in 10.0 mi NNW 3.5 mph - N/A   Scattered Clouds
10:15 AM 59.5 °F 40.5 °F 49% 29.87 in 10.0 mi WNW 3.5 mph - N/A   Clear
10:35 AM 60.6 °F 40.6 °F 48% 29.88 in 10.0 mi NNW 3.5 mph - N/A   Clear
10:55 AM 61.7 °F 40.6 °F 46% 29.89 in 10.0 mi NW 3.5 mph - N/A   Clear
11:15 AM 62.6 °F 39.2 °F 42% 29.89 in 10.0 mi NW 3.5 mph - N/A   Clear
11:55 AM 64.2 °F 39.4 °F 40% 29.89 in 10.0 mi NW 5.8 mph - N/A   Clear
12:15 PM 64.4 °F 38.7 °F 39% 29.89 in 10.0 mi West 5.8 mph - N/A   Scattered Clouds
12:35 PM 65.7 °F 38.3 °F 37% 29.89 in 10.0 mi NW 6.9 mph - N/A   Scattered Clouds
12:55 PM 65.5 °F 37.0 °F 35% 29.89 in 10.0 mi NNW 10.4 mph - N/A   Mostly Cloudy
1:15 PM 66.0 °F 37.8 °F 35% 29.90 in 10.0 mi NW 5.8 mph - N/A   Mostly Cloudy
1:35 PM 66.2 °F 38.8 °F 37% 29.89 in 10.0 mi NW 6.9 mph - N/A   Scattered Clouds
1:55 PM 67.8 °F 36.9 °F 32% 29.89 in 10.0 mi NNW 5.8 mph - N/A   Scattered Clouds
2:15 PM 67.1 °F 34.0 °F 29% 29.89 in 10.0 mi WSW 5.8 mph - N/A   Mostly Cloudy
2:35 PM 68.0 °F 35.1 °F 30% 29.90 in 10.0 mi NW 5.8 mph - N/A   Scattered Clouds
2:55 PM 68.2 °F 34.5 °F 29% 29.89 in 10.0 mi WNW 6.9 mph - N/A   Mostly Cloudy
3:15 PM 69.8 °F 36.3 °F 29% 29.89 in 10.0 mi NW 4.6 mph - N/A   Mostly Cloudy
3:35 PM 67.1 °F 35.6 °F 31% 29.89 in 10.0 mi WNW 5.8 mph - N/A   Mostly Cloudy
3:55 PM 69.8 °F 34.2 °F 27% 29.89 in 10.0 mi NW 10.4 mph - N/A   Overcast
4:15 PM 69.6 °F 32.5 °F 25% 29.90 in 10.0 mi WNW 10.4 mph 16.1 mph N/A   Overcast
4:35 PM 68.9 °F 36.0 °F 30% 29.91 in 10.0 mi NW 8.1 mph 17.3 mph N/A   Mostly Cloudy
4:55 PM 66.9 °F 33.4 °F 29% 29.92 in 10.0 mi NW 9.2 mph 16.1 mph N/A   Scattered Clouds
5:15 PM 65.8 °F 34.0 °F 31% 29.93 in 10.0 mi NW 9.2 mph - N/A   Mostly Cloudy
5:35 PM 66.4 °F 35.2 °F 32% 29.94 in 10.0 mi WNW 11.5 mph 17.3 mph N/A   Scattered Clouds
5:55 PM 66.0 °F 36.9 °F 34% 29.95 in 10.0 mi NW 5.8 mph 17.3 mph N/A   Clear
6:15 PM 66.4 °F 36.7 °F 33% 29.96 in 10.0 mi WNW 6.9 mph - N/A   Clear
6:35 PM 66.0 °F 35.6 °F 32% 29.96 in 10.0 mi West 5.8 mph - N/A   Scattered Clouds
6:55 PM 66.0 °F 36.7 °F 34% 29.97 in 10.0 mi Calm Calm - N/A   Scattered Clouds
7:15 PM 64.4 °F 38.1 °F 38% 29.98 in 10.0 mi Calm Calm - N/A   Scattered Clouds
7:35 PM 64.4 °F 36.7 °F 36% 29.99 in 10.0 mi Calm Calm - N/A   Clear
7:55 PM 62.4 °F 39.2 °F 42% 30.00 in 10.0 mi Calm Calm - N/A   Clear
8:15 PM 58.1 °F 44.4 °F 60% 30.01 in 10.0 mi Calm Calm - N/A   Scattered Clouds
8:35 PM 59.9 °F 41.2 °F 50% 30.02 in 10.0 mi Calm Calm - N/A   Clear
8:55 PM 58.6 °F 41.2 °F 52% 30.03 in 10.0 mi Calm Calm - N/A   Clear
9:15 PM 56.5 °F 42.3 °F 59% 30.04 in 10.0 mi Calm Calm - N/A   Clear
9:35 PM 55.6 °F 42.4 °F 61% 30.05 in 10.0 mi Calm Calm - N/A   Clear
9:55 PM 55.0 °F 44.1 °F 67% 30.07 in 10.0 mi Calm Calm - N/A   Clear
10:15 PM 54.0 °F 43.3 °F 67% 30.07 in 10.0 mi Calm Calm - N/A   Clear
10:35 PM 52.9 °F 43.7 °F 71% 30.08 in 10.0 mi Calm Calm - N/A   Clear
10:55 PM 49.6 °F 43.7 °F 80% 30.08 in 10.0 mi North 3.5 mph - N/A   Clear
11:15 PM 50.2 °F 43.3 °F 77% 30.10 in 10.0 mi Calm Calm - N/A   Clear
11:35 PM 49.5 °F 42.8 °F 78% 30.10 in 10.0 mi Calm Calm - N/A   Clear
11:55 PM 47.8 °F 43.2 °F 84% 30.11 in 10.0 mi Calm Calm - N/A   Clear